Baker Lake Airport
CYBK : now visible

Airfield :











YOU CAN JOIN US ON...

 
LOGIN :

Register | Disclaimer

   EN    FR    IT 

 









Legend :    VFR   Marginal VFR   IFR   Intensive IFR   Very Intensive IFR
Visi :
Ceiling :
>= 8 km
>= 3000ft
5 to 8 km
1000 to 3000 ft
1500m to 5 km
500 to 1000 ft
800 to 1500m
200 to 500 ft
< 800m
< 200 ft
Symbols :   Thunderstorms  Fog  Heavy snow  Heavy precipitations  Wind > 20 kt






- Airport Elevation : 59 ft
- IATA code : YBK


CYBK - Baker Lake

CURRENT METAR :
  • 171900Z 01009KT 20SM BKN021 07/02 A2974 RMK SC7 SLP074

EXPIRED METARs :
  • 171800Z 01009KT 20SM BKN019 06/02 A2973 RMK SC7 SLP071
  • 171700Z 02011KT 20SM BKN016 OVC130 06/02 A2972 RMK SC7AC1 SLP068

TAF TAF CYBK
Valid from the 17 at 18:00 until the 18 at 06:00 UTC


171738Z 1718/1806 01010KT P6SM SCT015 BKN040
TEMPO 1718/1806 P6SM -RA BKN015 OVC040 RMK NXT FCST BY 180000Z
CZEG FIR / North America



MET'MAP, your aeronautical weather chart ! - Copyright ORBIFLY December 2007 - Disclaimer

ORBIFLY MET'MAP TEAM :

Programming & Development : Alexandra Zaïnal
Concept & original design : Baudouin d'Aumeries
Assistance for programming : Marc-Olivier Méhu
Technical & hardware support : Manuel Goepfert

Contact : metmap@orbifly.com




SOURCES & CREDITS :

   NOAA       Earth
Advisory